ICEYE-X37

导读 | 星芒AI

ICEYE-X37 是 ICEYE 公司研发的一颗合成孔径雷达(SAR)卫星,具备高分辨率成像能力,可在任何天气和光照条件下提供地球表面的实时图像。该卫星采用小型卫星平台,提升了任务灵活性和部署效率。作为 ICEYE 卫星星座的一部分,ICEYE-X37 用于支持灾害监测、环境管理和国家安全等应用,增强了全球范围内的地球观测能力。

基本信息
目录编号:
59102
目录名称:
ICEYE-X37
国际标识:
2024-043E
轨道中心:
EARTH
卫星名称:
ICEYE-X37
卫星全名:
--
卫星状态:
在轨 (已飞行604 天)
发射日期:
2024-03-04 UTC
国别 :
美国 (US)
星等 :
--
轨道信息
数据来源 国际轨道数据 AOE轨道数据
星历时间 2025-10-28T15:39:45+0800
23小时前
查看轨道信息
2025-10-24T16:00:00+0800
4天前
查看轨道信息
半长轴 6935.147km 6935.318km
偏心率 0.0016391 0.0016769
轨道倾角 97.803° 97.803°
近地点辐角 74.662° 87.517°
升交点赤经 70.583° 66.567°
平近点角 285.642° 316.465°
近地点 545.644km 545.553km
远地点 568.38km 568.813km
周期 95.795分钟 95.799分钟
每日圈数 15.032087 15.031533
详细信息
使用方式:
暂无
2D轨道图
3D轨道图
轨道高度分析图
轨道倾角分析图
轨道综合分析图
查看轨道综合分析图